Temp
-11 -11 -11 -11 -11 -11 -12 -12 -12 -12 -13 -13 -13 -13 -13 -13 -13 -13 -13 -14 -14 -13 -13 -13 -12 -12 -11 -11 -11 -11 -10 -10 -11 -11 -11 -11 -11 -12 -12 -12 -12 -12 -12 -11 -11 -11 -11 -11 -11 -11 -11 -12 -12 -12 -12 -12 -12 -11 -11 -10 -9 -8 -7
-11 -11 -12 -12 -12 -12 -12 -12 -13 -13 -13 -13 -13 -13 -13 -13 -14 -14 -14 -14 -14 -14 -14 -13 -13 -13 -12 -12 -12 -12 -11 -11 -11 -11 -11 -11 -11 -11 -12 -12 -12 -12 -13 -13 -12 -12 -11 -11 -11 -11 -11 -12 -13 -13 -13 -13 -12 -12 -11 -11 -10 -9 -8
-11 -12 -12 -12 -13 -13 -13 -13 -13 -13 -13 -13 -14 -14 -14 -14 -14 -14 -14 -14 -14 -14 -14 -14 -14 -13 -13 -13 -13 -13 -12 -12 -12 -11 -11 -11 -11 -11 -12 -12 -12 -12 -13 -13 -13 -12 -12 -12 -12 -12 -12 -13 -14 -14 -14 -14 -13 -12 -12 -11 -11 -10 -9
-11 -12 -12 -13 -13 -13 -13 -13 -14 -14 -14 -14 -14 -14 -14 -14 -14 -14 -14 -14 -14 -14 -14 -14 -14 -14 -14 -13 -13 -13 -13 -12 -12 -12 -12 -12 -12 -12 -11 -12 -12 -13 -13 -13 -13 -13 -12 -12 -12 -12 -12 -13 -14 -15 -15 -15 -14 -14 -13 -12 -11 -11 -10
-11 -12 -12 -13 -13 -14 -14 -14 -14 -14 -14 -14 -14 -14 -14 -14 -14 -15 -15 -15 -15 -15 -15 -14 -14 -14 -14 -14 -14 -14 -13 -13 -12 -12 -12 -12 -12 -12 -12 -12 -12 -13 -13 -14 -13 -13 -13 -13 -12 -12 -12 -13 -14 -15 -15 -15 -15 -14 -13 -12 -12 -11 -10
-11 -12 -12 -13 -13 -14 -14 -14 -15 -15 -15 -15 -15 -15 -15 -15 -15 -15 -15 -15 -15 -15 -15 -15 -15 -15 -15 -14 -14 -14 -14 -13 -12 -12 -12 -13 -13 -13 -13 -13 -13 -13 -13 -13 -14 -13 -13 -13 -13 -12 -12 -13 -14 -15 -15 -15 -15 -14 -14 -13 -12 -12 -11
-11 -12 -13 -13 -13 -14 -14 -15 -15 -15 -15 -15 -15 -15 -15 -15 -15 -15 -15 -15 -15 -15 -15 -15 -15 -15 -15 -15 -15 -15 -14 -13 -13 -13 -12 -12 -13 -13 -13 -13 -13 -13 -13 -13 -14 -14 -13 -13 -13 -13 -12 -13 -14 -15 -15 -15 -15 -15 -14 -14 -13 -13 -12
-12 -13 -14 -14 -14 -14 -14 -15 -15 -15 -15 -16 -16 -16 -16 -16 -15 -15 -16 -16 -16 -16 -16 -16 -16 -16 -16 -15 -15 -15 -15 -14 -13 -13 -13 -13 -13 -13 -13 -13 -13 -13 -13 -14 -14 -14 -14 -13 -13 -13 -12 -13 -14 -15 -14 -15 -15 -15 -15 -14 -14 -13 -13
-13 -14 -14 -14 -15 -15 -15 -15 -15 -16 -16 -16 -16 -16 -16 -16 -16 -16 -16 -16 -16 -16 -16 -16 -16 -16 -16 -16 -16 -16 -15 -14 -14 -14 -14 -13 -13 -13 -13 -13 -14 -13 -13 -14 -14 -14 -14 -14 -13 -12 -12 -13 -14 -14 -15 -15 -15 -15 -15 -15 -14 -14 -13
-14 -14 -15 -15 -15 -15 -15 -15 -16 -16 -16 -16 -16 -16 -16 -16 -16 -16 -16 -16 -16 -16 -16 -17 -17 -17 -17 -16 -16 -16 -16 -15 -15 -15 -14 -14 -13 -13 -13 -14 -14 -14 -13 -14 -14 -14 -14 -14 -13 -12 -12 -13 -13 -14 -15 -15 -15 -15 -15 -15 -15 -14 -13
-15 -15 -15 -15 -15 -15 -16 -16 -16 -16 -16 -16 -16 -16 -16 -16 -16 -16 -16 -17 -17 -17 -17 -17 -17 -17 -17 -17 -17 -16 -16 -16 -16 -16 -15 -14 -14 -14 -14 -14 -14 -14 -13 -14 -14 -13 -14 -13 -12 -12 -12 -13 -13 -14 -15 -15 -15 -15 -15 -15 -15 -15 -14
-16 -16 -15 -15 -16 -16 -16 -16 -16 -16 -16 -16 -16 -16 -16 -17 -17 -16 -17 -17 -17 -17 -17 -18 -18 -18 -18 -17 -17 -17 -17 -16 -17 -17 -16 -16 -15 -15 -14 -14 -14 -14 -14 -14 -14 -13 -13 -13 -12 -12 -12 -13 -13 -14 -15 -15 -15 -15 -15 -15 -15 -15 -14
-17 -17 -16 -16 -16 -16 -16 -16 -16 -16 -16 -16 -16 -15 -16 -16 -16 -16 -17 -17 -17 -17 -18 -18 -18 -18 -18 -18 -18 -17 -17 -17 -17 -17 -17 -17 -16 -16 -16 -15 -14 -14 -14 -14 -14 -14 -13 -13 -13 -12 -12 -13 -14 -14 -15 -15 -15 -14 -15 -15 -15 -15 -14
-18 -18 -17 -17 -16 -16 -16 -16 -17 -17 -16 -16 -15 -15 -15 -16 -16 -16 -17 -17 -17 -18 -18 -18 -18 -19 -19 -19 -18 -18 -17 -17 -16 -16 -16 -17 -17 -17 -17 -16 -16 -15 -15 -15 -14 -14 -14 -13 -13 -13 -13 -13 -14 -14 -14 -14 -14 -14 -15 -15 -15 -15 -14
-19 -18 -18 -17 -16 -16 -16 -17 -17 -17 -16 -16 -15 -15 -15 -16 -16 -16 -16 -17 -17 -17 -18 -18 -18 -19 -19 -19 -19 -18 -17 -16 -16 -16 -16 -17 -17 -17 -17 -17 -16 -16 -16 -15 -14 -14 -13 -13 -13 -13 -13 -13 -14 -14 -14 -14 -14 -14 -15 -15 -15 -15 -14
-19 -18 -17 -17 -17 -17 -17 -17 -17 -17 -16 -16 -16 -15 -16 -16 -16 -16 -16 -17 -17 -17 -18 -18 -18 -19 -19 -19 -19 -19 -18 -17 -17 -17 -16 -16 -16 -17 -17 -17 -16 -16 -16 -16 -14 -14 -13 -13 -13 -13 -13 -13 -14 -14 -14 -14 -14 -14 -15 -15 -15 -14 -14
-19 -18 -18 -17 -17 -17 -17 -17 -17 -17 -17 -16 -16 -16 -16 -16 -16 -16 -16 -16 -17 -17 -18 -18 -18 -19 -19 -19 -19 -19 -18 -18 -18 -17 -17 -16 -16 -16 -16 -16 -15 -15 -16 -15 -15 -14 -13 -13 -14 -14 -13 -14 -14 -14 -14 -14 -14 -14 -14 -14 -14 -14 -14
-19 -19 -18 -18 -18 -18 -18 -18 -18 -17 -17 -17 -16 -16 -16 -17 -17 -17 -17 -17 -17 -17 -18 -18 -18 -18 -19 -19 -19 -18 -18 -18 -18 -18 -17 -16 -15 -16 -15 -15 -14 -15 -15 -15 -15 -15 -14 -14 -14 -14 -14 -14 -14 -14 -14 -14 -13 -13 -14 -14 -14 -14 -14
-19 -19 -18 -18 -18 -18 -18 -18 -18 -18 -18 -17 -17 -16 -17 -17 -17 -17 -17 -17 -17 -18 -18 -18 -18 -19 -19 -19 -18 -18 -18 -18 -18 -18 -17 -16 -16 -16 -15 -14 -14 -15 -14 -14 -15 -14 -14 -14 -14 -14 -14 -13 -13 -14 -14 -13 -13 -13 -14 -14 -13 -13 -14
-19 -19 -19 -19 -19 -18 -18 -18 -18 -18 -18 -18 -17 -16 -17 -17 -17 -17 -17 -17 -18 -18 -18 -18 -19 -19 -19 -18 -18 -18 -18 -18 -18 -17 -17 -17 -16 -15 -14 -14 -14 -14 -14 -14 -14 -14 -14 -14 -14 -14 -14 -13 -13 -13 -13 -13 -13 -13 -13 -13 -13 -13 -13
-20 -20 -20 -19 -19 -19 -19 -19 -19 -19 -19 -19 -18 -17 -17 -17 -17 -17 -18 -18 -18 -18 -18 -18 -19 -19 -19 -18 -18 -17 -17 -17 -17 -17 -17 -17 -16 -14 -14 -14 -14 -14 -13 -14 -14 -14 -14 -14 -14 -14 -14 -13 -13 -13 -13 -13 -13 -13 -14 -13 -13 -13 -13
-20 -20 -20 -20 -19 -19 -19 -19 -19 -19 -19 -19 -19 -18 -17 -17 -17 -17 -18 -18 -18 -19 -19 -19 -19 -19 -19 -18 -18 -17 -17 -17 -16 -16 -16 -16 -14 -14 -14 -14 -13 -13 -13 -14 -14 -14 -14 -14 -14 -14 -13 -13 -13 -13 -13 -13 -13 -13 -13 -13 -12 -13 -13
-20 -20 -20 -20 -20 -20 -20 -20 -20 -20 -19 -19 -19 -19 -18 -17 -17 -17 -18 -18 -18 -19 -19 -19 -19 -19 -19 -18 -18 -17 -17 -16 -16 -15 -15 -15 -14 -14 -14 -14 -13 -13 -13 -13 -13 -13 -13 -13 -14 -13 -13 -13 -12 -12 -12 -12 -12 -12 -13 -12 -12 -12 -12
-21 -21 -21 -20 -20 -20 -20 -20 -20 -20 -20 -19 -19 -19 -19 -18 -17 -17 -18 -18 -19 -19 -19 -19 -19 -19 -19 -18 -17 -17 -17 -16 -15 -15 -15 -14 -14 -13 -13 -13 -13 -13 -13 -13 -13 -13 -13 -13 -13 -13 -13 -12 -12 -12 -12 -12 -12 -12 -12 -12 -12 -12 -12
-21 -21 -21 -21 -21 -21 -21 -20 -20 -20 -20 -20 -19 -19 -19 -19 -18 -18 -18 -18 -19 -19 -19 -19 -19 -18 -18 -17 -17 -16 -16 -15 -15 -15 -14 -14 -13 -13 -13 -13 -13 -13 -13 -13 -13 -12 -12 -12 -12 -12 -12 -12 -12 -12 -12 -12 -12 -12 -12 -13 -13 -12 -12
-21 -21 -21 -21 -21 -21 -21 -21 -21 -20 -20 -19 -19 -19 -19 -19 -19 -19 -18 -18 -18 -19 -19 -19 -18 -18 -17 -17 -16 -16 -15 -15 -15 -14 -14 -13 -13 -13 -13 -13 -13 -13 -12 -13 -12 -12 -12 -12 -12 -11 -12 -12 -12 -12 -12 -12 -12 -12 -12 -13 -13 -13 -12
-21 -21 -21 -21 -21 -21 -21 -21 -21 -20 -20 -19 -19 -19 -19 -18 -19 -19 -19 -18 -18 -18 -19 -19 -18 -18 -17 -16 -16 -15 -15 -14 -14 -14 -13 -13 -13 -13 -13 -12 -12 -12 -12 -12 -12 -12 -12 -12 -12 -12 -12 -12 -12 -13 -13 -12 -12 -12 -12 -13 -13 -13 -12
-21 -21 -21 -21 -21 -21 -21 -21 -21 -20 -20 -19 -19 -19 -18 -18 -18 -18 -18 -18 -18 -18 -18 -18 -18 -17 -17 -16 -15 -15 -14 -14 -14 -14 -13 -13 -13 -13 -13 -13 -12 -13 -13 -13 -12 -12 -12 -12 -12 -12 -12 -13 -13 -13 -13 -13 -13 -12 -12 -12 -13 -13 -13
-21 -21 -21 -21 -21 -21 -21 -21 -20 -20 -19 -19 -19 -19 -18 -18 -18 -17 -18 -18 -18 -18 -18 -18 -18 -17 -17 -16 -16 -15 -14 -14 -14 -13 -13 -13 -13 -13 -13 -13 -13 -13 -13 -13 -13 -13 -13 -12 -12 -12 -13 -13 -13 -13 -13 -13 -13 -13 -13 -13 -13 -13 -12
-21 -20 -20 -20 -20 -21 -21 -21 -20 -20 -19 -19 -19 -19 -19 -18 -18 -18 -17 -18 -18 -18 -18 -18 -17 -17 -17 -16 -16 -15 -14 -14 -14 -14 -14 -14 -14 -14 -13 -13 -14 -14 -14 -13 -13 -13 -13 -13 -13 -13 -13 -13 -13 -13 -13 -13 -14 -14 -13 -13 -13 -12 -12
-20 -20 -20 -20 -20 -20 -20 -20 -20 -19 -19 -19 -19 -19 -19 -19 -18 -18 -17 -18 -18 -18 -18 -17 -17 -17 -16 -16 -15 -15 -14 -14 -14 -14 -14 -14 -14 -14 -14 -14 -14 -14 -14 -14 -14 -14 -14 -14 -13 -13 -13 -13 -13 -13 -13 -13 -14 -14 -14 -13 -13 -13 -12
-20 -19 -19 -19 -19 -19 -19 -19 -20 -19 -19 -19 -18 -18 -18 -18 -18 -17 -17 -17 -17 -18 -17 -17 -17 -16 -16 -15 -15 -15 -15 -14 -14 -14 -14 -14 -14 -14 -14 -14 -14 -14 -15 -15 -14 -14 -14 -14 -14 -14 -14 -14 -14 -14 -14 -14 -13 -13 -14 -14 -13 -13 -13
-21 -20 -19 -19 -19 -19 -19 -19 -19 -19 -18 -18 -18 -17 -17 -17 -17 -16 -16 -16 -17 -17 -16 -16 -16 -16 -15 -15 -15 -15 -15 -15 -15 -15 -15 -15 -15 -15 -15 -15 -15 -15 -15 -15 -15 -15 -15 -15 -15 -15 -15 -15 -15 -15 -15 -14 -13 -13 -13 -13 -14 -14 -14
-21 -20 -20 -19 -19 -19 -18 -18 -18 -18 -18 -17 -17 -16 -16 -16 -16 -16 -16 -16 -16 -16 -16 -16 -16 -16 -16 -16 -15 -15 -15 -15 -15 -15 -15 -15 -15 -15 -15 -16 -16 -16 -16 -15 -15 -15 -16 -16 -15 -16 -16 -16 -16 -15 -15 -15 -14 -13 -13 -13 -13 -13 -14
-21 -20 -20 -20 -19 -19 -18 -18 -18 -18 -17 -17 -16 -16 -16 -16 -16 -16 -16 -16 -16 -16 -16 -16 -16 -16 -16 -16 -16 -16 -16 -16 -16 -16 -16 -16 -16 -16 -16 -16 -16 -16 -16 -16 -16 -16 -16 -16 -16 -16 -16 -16 -16 -16 -16 -15 -15 -14 -13 -13 -13 -13 -13
-22 -21 -20 -20 -19 -18 -18 -18 -18 -17 -17 -17 -17 -17 -16 -16 -17 -17 -17 -17 -17 -17 -17 -16 -16 -16 -16 -16 -16 -16 -16 -16 -16 -16 -16 -16 -16 -16 -16 -16 -16 -16 -16 -16 -16 -16 -16 -16 -16 -17 -17 -17 -17 -16 -16 -16 -16 -15 -14 -13 -13 -13 -13
Height
1397 1395 1394 1392 1389 1388 1386 1384 1383 1382 1381 1380 1379 1379 1379 1379 1379 1378 1378 1379 1380 1380 1381 1381 1381 1381 1383 1384 1385 1385 1386 1387 1388 1388 1388 1389 1390 1390 1391 1392 1392 1391 1389 1390 1391 1391 1391 1390 1389 1388 1387 1386 1384 1384 1384 1384 1384 1384 1385 1385 1385 1386 1387
1391 1390 1388 1386 1384 1383 1381 1380 1378 1377 1376 1374 1373 1373 1373 1373 1374 1373 1374 1374 1374 1375 1376 1377 1377 1377 1379 1380 1381 1381 1382 1383 1384 1384 1384 1385 1386 1386 1387 1388 1389 1389 1387 1387 1387 1388 1388 1388 1387 1385 1384 1383 1382 1381 1381 1380 1380 1381 1381 1382 1382 1382 1384
1384 1384 1383 1381 1379 1377 1376 1374 1373 1372 1371 1369 1368 1368 1368 1368 1368 1368 1369 1369 1369 1370 1371 1372 1373 1373 1375 1376 1377 1377 1378 1379 1380 1380 1381 1381 1382 1383 1384 1385 1386 1386 1385 1384 1385 1385 1385 1385 1385 1383 1382 1381 1379 1379 1378 1377 1377 1377 1377 1378 1378 1379 1380
1376 1376 1376 1375 1373 1371 1370 1368 1368 1367 1365 1364 1363 1362 1362 1363 1363 1363 1363 1364 1365 1366 1366 1367 1368 1369 1371 1372 1373 1373 1374 1376 1376 1377 1377 1378 1378 1379 1380 1381 1382 1383 1383 1382 1382 1382 1383 1383 1382 1381 1380 1379 1377 1376 1376 1375 1374 1373 1373 1374 1374 1375 1376
1371 1370 1369 1369 1368 1366 1364 1363 1362 1361 1360 1359 1358 1357 1357 1357 1358 1358 1358 1359 1360 1361 1362 1362 1363 1365 1366 1368 1368 1369 1370 1371 1373 1373 1374 1374 1375 1376 1377 1378 1379 1380 1380 1380 1379 1379 1380 1381 1380 1380 1379 1377 1376 1374 1373 1372 1372 1371 1370 1370 1370 1371 1372
1365 1364 1363 1363 1362 1360 1358 1357 1356 1355 1354 1353 1353 1352 1352 1352 1352 1353 1354 1354 1355 1356 1357 1358 1359 1360 1362 1362 1363 1364 1365 1367 1369 1369 1370 1371 1372 1372 1373 1374 1375 1376 1377 1377 1376 1377 1377 1378 1378 1378 1377 1376 1375 1373 1372 1371 1370 1369 1368 1368 1368 1368 1370
1359 1358 1357 1356 1355 1354 1352 1351 1350 1349 1348 1348 1347 1347 1347 1347 1348 1348 1349 1350 1350 1351 1352 1353 1354 1356 1357 1358 1358 1360 1361 1363 1364 1365 1366 1367 1369 1369 1370 1371 1372 1373 1374 1374 1374 1374 1375 1375 1376 1376 1375 1375 1374 1372 1371 1370 1369 1368 1367 1367 1366 1367 1368
1355 1352 1351 1350 1348 1347 1346 1344 1343 1342 1342 1342 1342 1342 1341 1342 1342 1343 1343 1345 1345 1346 1347 1348 1349 1351 1353 1354 1354 1356 1357 1359 1360 1361 1362 1364 1365 1366 1367 1368 1369 1370 1370 1371 1371 1371 1372 1373 1373 1374 1373 1373 1372 1371 1370 1370 1368 1367 1366 1366 1366 1366 1367
1351 1347 1345 1343 1342 1341 1339 1338 1336 1335 1336 1336 1336 1336 1336 1336 1337 1337 1338 1339 1340 1341 1342 1343 1344 1345 1348 1350 1351 1352 1353 1354 1356 1356 1358 1360 1361 1362 1363 1364 1365 1366 1367 1367 1368 1369 1369 1370 1370 1371 1371 1371 1370 1370 1369 1369 1368 1367 1366 1366 1366 1366 1366
1345 1342 1339 1336 1335 1334 1332 1330 1329 1328 1329 1330 1330 1330 1330 1331 1332 1332 1333 1334 1335 1336 1337 1338 1339 1340 1343 1345 1346 1347 1349 1350 1351 1352 1353 1355 1357 1358 1359 1360 1361 1362 1363 1364 1364 1365 1367 1367 1368 1368 1369 1369 1369 1368 1368 1368 1367 1366 1366 1365 1364 1364 1365
1338 1335 1333 1330 1328 1326 1325 1323 1322 1322 1323 1324 1324 1324 1325 1325 1327 1328 1328 1329 1330 1331 1332 1333 1334 1335 1337 1340 1341 1343 1345 1346 1347 1348 1349 1351 1352 1353 1355 1356 1357 1358 1359 1360 1361 1362 1364 1364 1365 1366 1367 1367 1367 1367 1367 1366 1366 1365 1365 1364 1364 1363 1364
1329 1327 1326 1324 1321 1319 1317 1316 1316 1316 1317 1318 1319 1320 1319 1320 1321 1323 1323 1324 1325 1326 1327 1329 1330 1331 1332 1334 1336 1338 1340 1342 1343 1345 1346 1347 1348 1349 1351 1352 1354 1355 1356 1357 1358 1359 1360 1361 1363 1364 1365 1365 1365 1365 1365 1365 1364 1364 1364 1363 1363 1362 1363
1321 1319 1318 1316 1314 1312 1310 1309 1309 1310 1311 1312 1313 1315 1315 1315 1315 1317 1319 1320 1321 1322 1323 1324 1326 1327 1328 1329 1332 1334 1335 1337 1339 1341 1342 1344 1345 1346 1347 1348 1350 1351 1353 1354 1355 1356 1357 1359 1361 1362 1362 1363 1364 1364 1363 1363 1363 1363 1363 1362 1362 1362 1361
1313 1311 1310 1309 1307 1305 1303 1302 1303 1304 1305 1306 1308 1310 1312 1311 1310 1312 1313 1315 1316 1318 1319 1320 1322 1323 1324 1325 1327 1328 1330 1332 1334 1335 1337 1340 1341 1343 1344 1345 1347 1348 1349 1351 1352 1353 1354 1357 1359 1360 1361 1362 1362 1362 1362 1362 1362 1362 1362 1362 1361 1361 1360
1306 1304 1302 1302 1301 1299 1297 1296 1297 1298 1300 1301 1303 1305 1307 1307 1306 1307 1308 1310 1311 1313 1315 1316 1318 1319 1321 1322 1322 1324 1325 1327 1329 1330 1332 1334 1336 1338 1340 1341 1342 1344 1346 1347 1348 1349 1351 1354 1356 1357 1359 1360 1360 1361 1361 1361 1362 1361 1361 1361 1360 1360 1359
1302 1299 1297 1296 1296 1294 1291 1290 1292 1293 1295 1296 1298 1301 1303 1303 1302 1303 1304 1306 1307 1309 1311 1312 1314 1315 1317 1318 1319 1320 1322 1324 1325 1326 1327 1329 1331 1334 1336 1337 1338 1341 1343 1344 1345 1347 1349 1352 1354 1355 1357 1358 1359 1359 1359 1360 1360 1360 1360 1360 1359 1359 1359
1297 1295 1293 1292 1290 1288 1286 1286 1287 1289 1290 1292 1294 1296 1298 1298 1298 1298 1300 1302 1303 1305 1307 1308 1310 1312 1313 1314 1315 1316 1318 1321 1322 1322 1323 1325 1327 1329 1331 1333 1335 1338 1340 1342 1344 1345 1347 1349 1351 1353 1355 1356 1356 1357 1358 1358 1358 1358 1359 1359 1359 1359 1359
1292 1290 1289 1287 1285 1284 1282 1282 1283 1285 1286 1288 1290 1292 1293 1294 1295 1295 1296 1298 1300 1301 1303 1304 1306 1308 1309 1310 1311 1313 1315 1317 1319 1319 1319 1321 1323 1325 1327 1329 1331 1334 1337 1339 1342 1344 1346 1348 1349 1351 1352 1353 1354 1356 1356 1356 1357 1357 1358 1359 1359 1359 1359
1288 1286 1285 1283 1280 1279 1278 1278 1279 1280 1282 1284 1286 1288 1289 1290 1292 1293 1294 1295 1296 1297 1299 1301 1302 1304 1305 1306 1307 1309 1311 1313 1316 1316 1316 1318 1320 1322 1323 1325 1328 1331 1334 1336 1338 1340 1343 1346 1347 1349 1350 1351 1353 1354 1355 1355 1355 1357 1357 1358 1358 1359 1359
1286 1283 1281 1278 1276 1275 1275 1275 1275 1277 1278 1280 1282 1284 1285 1286 1287 1289 1291 1292 1293 1295 1296 1297 1299 1300 1302 1303 1304 1306 1307 1309 1312 1313 1313 1315 1317 1317 1319 1322 1326 1329 1331 1334 1336 1338 1340 1342 1344 1346 1348 1349 1350 1352 1353 1353 1354 1355 1356 1356 1357 1358 1358
1283 1280 1277 1275 1273 1272 1272 1272 1272 1273 1275 1277 1278 1280 1282 1283 1283 1285 1287 1288 1290 1291 1292 1294 1295 1296 1298 1300 1302 1304 1305 1306 1309 1310 1312 1313 1313 1314 1318 1322 1324 1327 1330 1332 1334 1336 1338 1340 1341 1343 1344 1346 1347 1349 1350 1351 1352 1352 1353 1354 1355 1356 1357
1280 1277 1274 1272 1271 1270 1270 1270 1270 1271 1272 1274 1275 1277 1278 1280 1280 1281 1283 1284 1286 1287 1288 1290 1291 1292 1294 1296 1298 1301 1303 1304 1306 1308 1310 1310 1311 1314 1318 1321 1323 1325 1328 1329 1331 1333 1335 1337 1338 1340 1341 1343 1344 1346 1347 1349 1349 1350 1351 1352 1352 1354 1355
1277 1274 1271 1270 1269 1268 1267 1268 1268 1268 1269 1270 1272 1273 1275 1277 1278 1279 1279 1280 1282 1283 1285 1286 1288 1289 1291 1293 1294 1296 1299 1302 1304 1306 1308 1308 1310 1313 1317 1319 1321 1323 1325 1327 1329 1331 1332 1334 1335 1337 1338 1340 1341 1343 1345 1346 1347 1348 1349 1350 1351 1352 1353
1275 1272 1270 1268 1267 1266 1266 1265 1266 1266 1266 1267 1268 1270 1271 1273 1275 1276 1277 1277 1278 1280 1282 1283 1284 1286 1288 1290 1292 1293 1295 1298 1301 1303 1305 1306 1308 1312 1315 1317 1319 1321 1323 1325 1327 1328 1329 1331 1333 1334 1336 1337 1339 1341 1342 1344 1345 1346 1347 1348 1349 1350 1351
1273 1270 1268 1267 1265 1264 1264 1263 1263 1263 1264 1264 1265 1266 1268 1270 1272 1274 1275 1275 1275 1276 1279 1280 1282 1284 1286 1288 1290 1292 1294 1296 1298 1300 1302 1304 1306 1310 1313 1315 1317 1319 1321 1323 1324 1326 1327 1328 1330 1332 1334 1336 1338 1339 1340 1341 1343 1344 1345 1346 1347 1348 1349
1271 1268 1266 1265 1264 1263 1262 1261 1261 1260 1261 1261 1262 1263 1264 1266 1267 1270 1272 1273 1273 1274 1277 1279 1281 1283 1284 1286 1287 1290 1292 1293 1295 1298 1300 1302 1305 1308 1310 1312 1315 1317 1319 1320 1322 1324 1325 1327 1328 1331 1333 1335 1336 1337 1338 1339 1341 1342 1343 1344 1345 1346 1346
1268 1266 1265 1263 1262 1261 1260 1259 1259 1258 1258 1258 1259 1260 1261 1262 1263 1265 1268 1270 1272 1273 1275 1277 1278 1280 1282 1285 1286 1288 1289 1291 1293 1295 1298 1300 1303 1305 1307 1310 1312 1314 1317 1319 1321 1322 1324 1325 1327 1329 1331 1332 1334 1335 1337 1338 1339 1340 1341 1343 1344 1344 1344
1266 1264 1263 1262 1260 1259 1258 1257 1257 1256 1256 1256 1256 1257 1258 1259 1260 1261 1263 1265 1268 1271 1273 1275 1277 1278 1280 1283 1285 1286 1287 1289 1291 1294 1296 1298 1300 1303 1305 1307 1310 1313 1315 1317 1319 1320 1322 1323 1325 1327 1329 1331 1332 1333 1335 1336 1338 1339 1340 1342 1343 1343 1343
1263 1261 1260 1260 1259 1258 1257 1256 1255 1255 1255 1254 1254 1255 1255 1256 1257 1258 1260 1262 1266 1269 1272 1274 1276 1277 1278 1280 1282 1284 1285 1287 1289 1292 1294 1296 1298 1300 1302 1305 1308 1311 1313 1315 1317 1319 1320 1322 1324 1326 1327 1329 1331 1332 1333 1335 1336 1338 1339 1340 1341 1342 1343
1261 1259 1258 1257 1257 1257 1256 1254 1253 1253 1254 1254 1254 1255 1255 1255 1256 1256 1258 1261 1264 1268 1271 1273 1274 1275 1277 1279 1280 1282 1284 1286 1288 1290 1292 1294 1296 1298 1301 1303 1306 1309 1312 1313 1315 1317 1319 1321 1322 1324 1326 1327 1329 1331 1332 1333 1334 1336 1337 1339 1340 1341 1341
1259 1258 1257 1256 1255 1255 1255 1254 1253 1252 1252 1254 1255 1256 1256 1256 1256 1257 1258 1260 1264 1267 1269 1271 1273 1274 1276 1278 1280 1281 1283 1285 1287 1289 1291 1293 1295 1297 1300 1303 1305 1308 1310 1311 1313 1315 1317 1319 1320 1322 1324 1325 1327 1329 1331 1332 1333 1334 1335 1337 1338 1339 1340
1258 1257 1257 1256 1255 1254 1254 1253 1252 1252 1252 1253 1255 1256 1257 1257 1257 1258 1259 1261 1264 1267 1269 1271 1272 1274 1275 1277 1279 1280 1282 1284 1286 1288 1290 1292 1294 1296 1299 1301 1304 1306 1308 1309 1311 1312 1314 1316 1318 1319 1321 1323 1324 1326 1329 1330 1331 1332 1333 1335 1336 1337 1338
1257 1256 1256 1256 1255 1254 1254 1253 1253 1253 1253 1254 1254 1256 1257 1258 1258 1260 1261 1263 1265 1267 1269 1271 1272 1274 1275 1277 1278 1280 1282 1284 1286 1288 1290 1292 1294 1296 1298 1300 1302 1304 1306 1307 1309 1311 1312 1314 1315 1317 1318 1320 1322 1323 1325 1328 1329 1330 1331 1332 1334 1335 1337
1257 1257 1256 1256 1255 1254 1255 1255 1255 1255 1255 1255 1254 1255 1257 1258 1259 1261 1262 1264 1266 1267 1269 1270 1272 1274 1275 1277 1278 1279 1281 1283 1285 1287 1289 1291 1293 1295 1297 1299 1300 1302 1304 1306 1307 1309 1310 1311 1313 1314 1315 1317 1319 1321 1322 1324 1326 1328 1329 1330 1331 1333 1334
1258 1258 1258 1256 1255 1255 1255 1256 1256 1257 1256 1256 1255 1256 1257 1258 1259 1260 1262 1264 1265 1267 1269 1270 1272 1274 1275 1276 1278 1279 1281 1283 1285 1287 1288 1290 1292 1294 1296 1297 1299 1301 1302 1304 1305 1307 1308 1309 1310 1311 1312 1314 1316 1318 1319 1321 1323 1325 1327 1328 1329 1331 1332
1261 1259 1259 1258 1257 1256 1256 1257 1258 1258 1257 1257 1257 1257 1257 1259 1260 1261 1263 1264 1266 1267 1269 1270 1272 1273 1275 1276 1277 1279 1281 1282 1284 1286 1288 1289 1291 1293 1294 1296 1298 1299 1300 1302 1303 1305 1306 1307 1308 1309 1310 1312 1314 1315 1317 1318 1320 1322 1323 1325 1327 1328 1330
Wind_Speed
34 34 36 38 40 42 43 42 42 41 40 41 42 42 42 41 40 40 40 40 40 39 39 40 39 39 38 37 36 35 34 33 32 31 30 28 27 27 26 25 25 27 28 26 25 24 23 21 22 23 21 21 23 24 24 26 27 26 25 25 27 26 26
32 34 36 37 39 41 43 43 42 42 41 42 43 43 42 42 41 41 40 40 40 40 39 40 40 39 39 37 37 36 34 33 32 32 31 29 28 28 27 26 26 26 26 27 26 25 23 21 21 22 21 20 20 20 19 21 24 27 27 25 26 28 28
31 34 36 37 38 40 42 43 43 42 42 43 43 43 43 42 41 41 41 40 41 40 39 39 40 40 39 38 38 37 36 34 32 32 31 30 28 27 26 26 26 25 26 27 27 25 23 21 20 21 20 19 18 18 18 18 20 22 26 26 27 28 29
33 35 36 36 37 39 42 43 43 43 43 43 44 44 44 43 42 41 41 40 41 40 39 40 40 40 40 39 39 39 38 36 34 33 32 30 28 27 26 25 23 23 25 27 27 25 22 20 20 20 19 18 18 17 17 18 17 18 21 24 26 28 29
37 37 37 37 37 38 41 42 43 44 44 43 44 44 44 44 42 41 40 40 40 40 40 40 40 40 40 40 40 40 39 38 36 35 34 32 29 27 26 25 22 22 24 26 27 25 22 20 19 19 18 17 16 16 16 16 16 16 17 20 23 26 28
40 40 39 39 38 38 39 42 43 44 44 44 43 44 44 44 43 42 41 40 39 39 40 40 41 40 40 40 40 40 39 38 37 37 36 34 31 29 28 27 26 25 26 26 26 24 22 21 19 18 17 15 14 14 15 15 16 15 14 16 20 23 27
42 40 39 40 40 38 38 40 42 43 44 44 44 43 44 43 42 42 41 41 40 40 40 40 40 40 39 39 39 38 37 37 37 37 36 34 33 33 32 31 29 28 27 26 25 24 23 21 19 18 16 14 13 13 14 14 16 15 12 11 14 18 22
39 38 39 40 41 40 38 39 42 43 44 44 43 43 43 43 42 41 41 41 41 40 40 40 40 40 40 39 39 38 38 37 37 37 36 34 34 34 34 32 30 29 28 27 26 25 23 22 20 18 16 15 13 13 10 9 12 13 12 11 10 13 16
41 41 40 40 42 41 39 39 41 43 44 44 44 43 43 43 42 41 40 40 41 41 41 41 41 42 41 41 40 39 39 39 38 38 37 35 34 34 34 34 32 30 30 29 28 26 25 23 22 19 16 15 12 10 9 9 11 13 13 13 12 10 11
47 45 43 43 45 43 41 40 41 43 44 43 44 44 44 43 42 41 40 41 41 41 41 42 42 42 42 42 40 40 39 38 37 37 37 35 34 34 35 34 33 33 32 31 29 28 26 25 23 19 15 12 9 7 8 9 11 12 11 11 12 10 7
51 49 48 48 48 46 43 42 42 42 41 40 41 42 43 44 43 41 41 41 41 41 41 41 40 41 41 41 41 39 37 36 35 36 36 35 34 34 34 33 33 34 34 32 31 29 27 26 23 18 14 12 9 7 8 9 8 8 9 10 11 10 5
52 52 51 50 49 47 45 43 43 42 40 38 38 38 40 42 42 41 41 41 41 41 40 39 38 38 38 38 38 38 37 36 35 34 34 33 32 32 31 31 31 32 33 32 31 29 28 26 22 18 15 12 8 7 7 8 7 6 7 7 8 9 6
48 49 49 49 48 47 46 44 43 41 38 37 36 35 37 40 40 39 39 39 40 41 40 38 36 35 35 35 35 35 36 37 37 35 34 32 30 30 29 29 30 31 31 30 29 30 30 26 22 18 15 10 7 7 7 7 6 5 7 8 8 9 7
45 45 45 45 45 45 45 44 43 40 36 34 33 32 34 38 39 39 38 38 39 40 40 39 37 35 34 33 33 32 33 34 36 37 36 34 32 31 30 29 29 30 30 29 30 31 30 26 23 20 16 11 8 7 8 8 8 8 10 12 11 11 10
41 40 39 39 40 41 42 42 40 37 33 32 32 31 32 36 38 38 38 38 39 39 38 37 36 35 33 32 32 31 30 31 33 35 36 37 36 34 34 33 32 31 30 30 31 31 30 27 25 22 17 13 10 10 10 10 11 11 13 14 13 13 13
39 38 37 36 36 38 39 39 37 34 31 29 30 30 32 34 36 37 38 39 40 39 37 35 34 33 30 29 30 30 29 29 30 32 34 35 36 36 36 37 36 34 32 31 30 31 30 28 26 23 20 15 11 11 11 11 13 14 14 14 14 14 13
38 37 36 36 36 36 36 35 33 30 29 29 29 30 32 33 34 36 36 37 38 38 37 35 33 31 28 27 28 29 29 28 28 30 31 31 33 36 38 38 37 34 33 31 30 29 28 27 24 21 17 14 13 12 10 10 13 14 13 13 14 13 11
37 36 35 36 36 34 33 32 31 28 27 28 27 28 30 31 32 33 32 32 35 36 35 35 33 30 29 28 27 28 29 28 28 29 30 28 30 34 37 37 36 34 31 30 28 27 26 25 23 18 13 11 12 14 14 12 12 11 11 11 11 11 10
37 36 35 35 34 31 30 30 29 26 24 26 26 27 28 30 32 34 32 31 32 32 31 30 29 27 27 28 26 25 26 27 28 30 30 27 28 33 36 35 33 31 29 27 26 26 26 26 26 22 19 16 13 14 16 17 14 12 12 12 11 9 8
36 36 37 35 31 29 28 28 27 25 23 23 24 26 27 29 33 36 37 36 35 32 30 28 28 27 27 27 26 24 24 26 28 31 31 28 28 32 34 32 30 29 26 24 23 24 25 25 26 25 25 25 22 18 18 19 19 17 16 15 13 10 9
34 36 36 32 28 27 27 26 26 25 22 22 23 23 25 28 32 35 37 38 37 35 34 33 33 33 31 29 27 26 26 26 27 30 31 29 29 31 30 27 27 25 22 21 21 21 22 22 23 24 25 25 25 24 21 21 22 21 19 19 17 14 12
34 35 32 28 27 27 26 26 25 25 23 21 21 21 23 26 31 33 35 36 36 35 35 34 33 32 31 29 29 28 27 27 26 28 30 29 28 28 26 24 23 22 21 21 20 20 20 20 20 22 22 22 22 23 22 22 23 24 23 21 19 17 14
33 33 29 26 26 27 27 26 25 24 23 20 19 20 22 24 28 30 32 34 34 34 33 32 31 29 28 27 27 28 29 29 27 28 30 29 26 26 26 25 24 22 22 22 21 20 20 20 20 20 20 19 19 19 19 19 20 22 22 21 19 18 16
33 31 27 26 26 26 27 27 25 24 23 20 17 18 21 23 25 27 28 31 33 32 31 31 30 27 25 24 24 25 27 28 29 29 31 30 27 25 25 26 25 22 21 21 21 21 21 21 21 19 18 17 17 16 17 17 17 19 19 19 19 18 16
32 30 26 26 26 26 26 26 26 24 22 20 18 17 19 22 24 24 24 27 29 28 26 26 25 23 23 23 23 23 23 25 28 30 32 32 29 28 27 27 25 24 23 22 22 21 21 21 20 18 17 16 15 15 16 17 17 18 18 18 18 18 17
32 29 26 26 25 25 25 24 24 23 21 18 17 16 17 21 24 24 24 25 26 25 23 22 22 22 21 21 20 20 21 23 27 30 32 31 30 29 28 28 27 27 27 25 23 21 20 19 18 17 16 14 14 14 14 13 14 16 17 17 17 16 16
32 28 25 25 25 24 23 23 22 21 19 17 15 14 15 19 22 24 26 26 26 25 23 20 20 21 20 18 18 18 19 23 27 29 30 30 29 28 27 26 26 26 24 22 19 19 20 19 17 15 13 13 13 13 13 11 11 12 14 15 15 15 15
33 29 26 24 24 23 22 21 20 18 16 15 13 12 13 17 20 23 26 29 28 26 23 19 18 19 20 19 18 17 19 23 26 26 27 27 27 26 25 25 24 22 20 19 16 15 18 20 19 16 14 13 11 11 11 11 10 10 11 12 14 16 16
32 29 27 24 22 20 19 19 18 13 9 9 8 7 9 11 14 18 23 28 30 27 24 21 19 19 20 20 18 16 17 21 23 23 23 23 22 22 23 23 22 19 19 20 17 14 15 18 19 18 17 16 14 11 11 12 11 11 12 13 14 16 17
27 24 22 22 21 18 15 15 14 9 4 5 7 6 5 6 8 12 17 24 28 27 25 24 21 20 19 18 15 14 17 20 20 19 19 18 18 19 20 21 21 19 19 21 21 19 17 17 18 18 18 18 17 14 12 13 14 14 13 15 16 16 17
19 15 14 18 20 17 14 15 15 8 7 7 9 10 9 7 6 8 11 18 24 24 23 22 20 19 18 17 15 15 18 19 17 17 18 18 18 18 19 20 20 20 20 21 22 22 21 20 21 21 21 21 20 18 16 15 16 15 12 14 17 17 17
15 12 9 12 17 18 15 15 14 5 10 10 7 9 12 11 9 8 9 13 19 22 21 19 18 17 16 16 17 18 18 17 16 16 19 20 19 19 19 20 20 21 21 21 22 22 22 22 22 23 23 23 22 21 20 18 17 16 13 13 15 16 17
11 12 10 8 11 14 14 14 10 2 9 7 3 6 11 12 10 10 10 13 17 19 17 16 16 16 16 17 19 20 19 18 16 15 16 17 17 18 20 21 20 20 20 19 20 21 22 22 23 24 24 22 20 20 21 21 20 18 16 16 15 15 16
8 6 9 12 9 8 9 10 7 4 4 2 2 6 12 12 11 12 12 13 15 15 14 13 13 14 14 15 16 18 18 18 17 16 16 17 18 19 20 20 20 20 19 19 19 21 22 23 25 25 24 23 22 23 24 24 24 21 18 19 19 17 15
14 8 12 16 10 4 3 4 2 2 1 4 1 11 15 14 13 14 13 13 14 15 15 14 13 13 14 14 15 16 17 17 16 16 18 19 20 20 20 20 20 20 20 19 19 20 20 20 21 22 22 23 25 25 26 26 27 26 22 20 19 19 18
20 13 14 13 8 3 3 2 5 4 1 3 9 14 15 14 13 13 13 13 14 14 14 15 15 16 16 17 17 17 17 17 17 17 19 20 20 21 21 21 21 21 20 19 18 18 18 17 18 19 20 22 24 25 26 26 27 29 28 24 21 19 18
Wind_Direction
294 292 292 290 282 272 267 265 264 261 257 252 251 249 247 246 244 243 243 242 241 240 240 240 241 242 242 242 241 240 238 236 236 238 239 240 243 244 247 250 252 257 266 270 273 279 283 286 290 291 291 284 277 275 271 265 262 259 254 247 243 240 238
295 298 299 294 283 273 268 265 263 260 256 252 249 248 246 245 243 243 242 241 240 239 239 239 239 240 240 240 240 240 238 236 236 236 237 239 241 244 247 250 252 255 259 264 270 276 282 288 292 294 295 292 286 284 281 271 263 258 253 249 244 240 237
295 301 305 299 285 275 270 266 263 259 255 252 249 247 246 245 243 243 242 241 239 238 237 237 238 238 238 237 238 239 237 236 236 237 238 239 241 244 247 249 251 250 250 256 265 272 279 287 292 295 296 294 289 286 283 278 272 264 255 249 245 243 238
294 300 305 301 289 279 272 267 263 259 255 252 249 247 245 244 243 243 242 241 239 237 235 235 237 237 237 237 237 237 237 235 236 237 238 240 242 243 246 248 246 243 245 252 260 268 276 283 289 295 296 293 291 288 285 284 281 273 261 252 246 244 241
292 297 303 304 296 284 275 268 263 259 256 253 250 247 245 243 242 242 242 241 239 237 235 235 236 237 237 237 237 236 236 236 236 238 238 238 240 241 244 247 244 240 242 249 257 264 271 278 285 292 293 291 292 291 289 288 286 282 272 258 250 245 242
291 294 300 305 301 290 280 271 264 259 256 254 250 247 245 243 242 241 241 240 238 237 236 235 235 235 236 237 238 236 237 238 239 239 237 234 233 235 238 242 242 241 242 247 254 261 267 272 279 287 291 291 294 297 299 301 299 297 288 270 258 250 244
289 290 296 301 301 294 284 274 265 260 255 253 250 247 244 242 241 241 241 239 238 236 235 234 233 233 234 236 237 238 239 240 239 238 237 233 230 230 234 239 240 240 243 246 249 254 261 268 274 280 287 289 290 292 295 300 302 304 305 287 265 255 249
288 291 295 297 296 294 288 276 265 259 255 251 248 246 243 242 241 241 240 238 237 235 234 233 233 232 232 234 236 239 240 241 240 238 237 234 232 231 234 237 238 240 242 244 246 251 256 263 268 274 281 285 283 285 294 309 311 311 315 309 285 265 254
292 293 294 293 292 290 286 277 266 259 254 250 247 244 242 241 240 239 238 236 236 235 234 234 234 233 234 235 235 238 240 241 241 240 239 237 235 234 235 236 236 239 241 242 243 248 251 256 263 269 276 280 280 285 300 309 305 303 308 312 303 282 259
293 292 291 292 291 286 281 277 268 260 254 250 247 245 242 240 238 237 237 236 235 236 236 236 236 235 236 236 235 235 237 240 241 242 242 241 239 238 237 236 236 237 240 241 242 246 248 252 259 267 272 278 284 286 285 286 289 294 301 307 304 295 279
289 288 288 288 287 282 277 274 269 261 252 247 246 246 242 239 237 237 236 235 235 236 237 238 237 236 235 235 234 232 233 235 237 239 242 244 244 243 240 237 237 239 240 240 242 246 247 249 257 265 268 274 284 280 273 277 287 294 298 302 304 301 298
286 285 285 284 283 279 275 272 269 262 255 250 248 246 241 239 239 238 237 236 235 236 236 236 236 237 237 235 233 231 230 231 231 233 238 242 244 244 243 240 239 240 241 242 244 246 246 248 255 262 266 271 278 273 268 276 288 305 315 315 312 307 296
289 285 283 282 280 278 275 271 267 262 258 255 251 245 240 239 241 240 239 238 236 235 234 234 234 236 237 237 235 233 232 232 230 229 231 234 236 238 241 241 240 240 240 241 245 246 247 249 254 259 265 269 271 264 266 277 293 315 321 316 315 317 311
293 289 286 283 280 278 275 270 265 261 258 253 247 242 239 238 241 242 242 241 238 235 235 235 235 235 235 237 239 238 235 233 232 231 229 227 226 229 233 235 236 238 239 238 240 242 243 246 251 258 264 264 260 260 264 278 288 298 307 307 306 308 303
299 297 293 287 282 280 276 271 265 261 258 250 242 238 237 238 241 242 242 242 241 239 240 240 239 238 238 238 238 239 237 235 234 233 231 226 224 224 228 230 229 230 234 235 236 238 238 240 244 252 258 257 256 260 264 274 280 284 290 291 290 292 292
303 301 296 290 286 284 279 271 265 262 257 248 239 234 236 239 241 242 241 242 242 241 242 244 244 244 243 239 236 235 236 237 236 236 234 230 226 223 224 229 230 228 229 233 236 237 237 238 242 250 254 254 253 256 260 266 269 269 271 274 280 288 293
303 301 297 292 290 287 281 271 265 262 255 245 237 234 235 238 241 241 241 242 243 242 242 244 245 246 247 245 239 235 234 234 234 237 238 234 230 226 224 227 231 230 229 232 236 238 239 242 247 250 246 242 244 249 250 251 256 260 262 266 276 288 302
305 301 297 294 292 288 281 272 267 264 254 243 235 232 235 237 237 237 236 238 242 242 242 244 246 246 248 250 247 242 238 231 226 232 239 234 227 227 226 227 230 231 230 231 233 236 239 243 247 244 232 226 231 238 243 248 256 264 265 265 272 291 312
307 302 298 298 294 287 278 272 270 267 255 242 233 231 235 236 231 229 230 232 237 240 240 240 242 243 245 249 250 246 240 230 221 225 234 233 226 225 225 226 228 230 229 226 225 227 231 234 237 238 240 242 239 235 241 250 259 264 262 263 271 286 300
306 303 301 299 292 283 276 271 270 269 259 244 233 228 232 235 230 228 230 231 231 232 233 233 235 236 235 238 241 240 235 228 219 220 228 231 226 224 223 223 224 226 226 224 224 227 230 231 231 232 235 240 243 243 244 249 254 257 257 261 264 264 265
305 306 304 297 286 279 275 272 271 271 265 251 238 230 230 234 233 231 231 232 231 232 234 235 238 240 237 232 232 232 230 226 219 218 224 227 223 220 221 221 221 221 222 224 227 231 234 235 234 231 227 228 233 237 239 243 248 251 251 252 251 246 248
307 309 305 293 282 277 275 274 272 272 269 258 246 236 230 231 234 234 233 233 232 234 236 237 239 242 240 234 230 229 228 226 220 215 219 224 220 215 216 218 218 218 221 225 228 230 231 231 230 229 226 225 227 230 231 234 238 241 244 246 244 240 242
309 311 303 290 282 277 276 275 273 272 272 266 254 242 233 230 231 234 236 236 235 235 236 237 238 239 239 236 234 231 227 225 222 216 216 221 219 212 210 215 219 222 223 227 232 232 228 225 223 223 225 224 222 222 225 228 232 236 241 244 243 241 243
312 311 301 291 285 279 277 277 276 275 274 271 263 246 234 230 230 232 235 239 240 239 238 238 238 237 236 234 234 233 228 225 223 215 210 214 216 213 209 212 218 222 223 223 226 226 224 222 219 217 216 214 213 214 219 226 231 235 242 245 244 244 247
313 308 299 293 289 283 280 280 280 279 276 273 270 254 233 227 229 230 231 235 241 243 239 235 234 234 233 231 230 231 229 225 219 211 206 209 212 213 213 215 218 221 220 217 218 219 223 226 223 218 213 211 214 219 222 225 229 235 244 250 249 250 250
312 306 299 294 291 287 285 283 282 284 284 278 271 257 235 222 223 226 226 229 237 240 234 230 229 228 231 232 230 229 227 221 213 206 205 208 211 214 217 219 218 217 216 215 218 220 222 225 226 222 217 212 213 217 218 220 222 227 237 247 251 253 252
310 303 297 295 294 291 287 284 284 288 290 284 271 255 238 226 223 223 219 218 225 231 229 228 227 225 229 233 232 230 224 214 207 204 206 210 213 216 214 208 205 207 209 211 218 222 223 224 224 222 218 215 216 218 219 218 217 219 227 235 242 250 253
308 301 295 294 295 292 288 287 290 292 291 285 275 260 248 239 231 226 218 212 212 220 226 228 226 225 227 229 231 229 220 211 208 208 209 209 208 207 202 196 196 201 205 208 211 208 208 212 210 203 199 201 205 214 223 223 217 218 226 228 231 238 243
307 299 291 291 296 297 293 291 294 297 298 294 283 264 253 243 231 225 220 210 204 207 216 220 223 226 227 227 229 225 210 203 201 202 202 200 196 195 195 196 198 200 204 210 211 197 189 191 190 188 193 198 205 221 239 238 227 222 229 234 234 235 236
308 298 288 287 294 301 308 308 306 299 288 297 292 269 251 246 229 220 218 210 202 201 208 214 220 226 226 226 229 222 205 196 193 193 196 199 201 204 204 202 200 200 205 214 218 213 206 201 199 201 206 212 218 225 232 239 241 238 232 231 232 233 235
316 303 286 285 292 300 315 324 319 291 222 229 256 247 237 238 222 199 199 200 196 197 204 212 219 225 226 226 225 214 203 199 199 200 201 201 201 207 211 211 208 209 212 219 224 226 225 225 226 226 227 230 230 224 216 229 248 252 236 222 225 231 233
337 332 308 291 293 299 310 325 326 279 191 184 211 232 229 226 210 183 171 180 188 194 203 212 217 219 217 213 205 193 187 186 188 189 190 188 189 200 214 220 221 222 223 225 229 234 236 236 237 237 237 238 237 230 223 224 236 245 239 225 224 228 230
352 349 344 324 300 293 302 322 329 238 168 152 159 213 211 208 195 176 165 172 180 185 190 193 195 194 189 185 183 182 182 183 185 188 192 196 203 215 225 231 232 231 231 230 230 233 235 235 237 240 242 240 234 229 224 217 216 225 233 231 228 226 226
12 6 3 358 337 295 294 306 294 220 165 22 339 186 180 180 176 173 173 175 178 180 181 181 184 189 190 189 190 192 196 199 204 212 220 226 229 231 232 233 232 229 227 227 228 230 233 236 239 242 241 235 227 222 221 216 211 211 214 220 225 227 228
4 17 14 11 8 349 322 311 257 188 2 347 118 152 159 163 163 166 171 173 175 181 188 194 199 203 205 208 210 211 213 216 220 221 222 224 228 228 226 226 225 223 223 225 228 232 236 240 240 236 230 224 220 220 220 218 214 210 206 207 211 216 224
356 4 13 23 39 33 2 61 123 116 80 115 125 135 151 156 146 143 150 151 151 159 168 176 183 187 190 196 202 208 213 216 217 216 213 214 218 220 219 219 218 219 223 228 231 234 237 240 238 231 223 218 217 218 220 221 219 216 213 210 205 204 211